Windom, MN

6:04 AM CST on January 19, 2018 (GMT -0600)
Windom Municipal

Weather History for KMWM - May, 2013

Change the Weather History Date:

Tuesday, May 21, 2013

  Actual Average Record
Temperature  
Mean Temperature 56 °F -  
Max Temperature 60 °F 75 °F 93 °F (1975)
Min Temperature 53 °F 49 °F 6 °F (2001)
Degree Days  
Heating Degree Days 8    
Growing Degree Days 6 (Base 50)    
Moisture  
Dew Point 52 °F    
Average Humidity 82    
Maximum Humidity 100    
Minimum Humidity 67    
Precipitation  
Precipitation 0.00 in - - ()
Sea Level Pressure  
Sea Level Pressure 29.58 in    
Wind  
Wind Speed 6 mph (SSW)    
Max Wind Speed 15 mph    
Max Gust Speed 17 mph    
Visibility 10 miles    
Events      
Averages and records for this station are not official NWS values.
T = Trace of Precipitation, MM = Missing Value Source: NWS Daily Summary

Daily Weather History Graph

Daily Weather History Graph

Search for Another Location

Airport or City:

Trip Planner

Search our weather history database for the weather conditions in past years. The results will help you decide how hot, cold, wet, or windy it might be!

Date:

Astronomy

May. 21, 2013 Rise Set
Actual Time 5:48 AM CDT 8:46 PM CDT
Civil Twilight 5:14 AM CDT 9:20 PM CDT
Nautical Twilight 4:30 AM CDT 10:04 PM CDT
Astronomical Twilight 3:39 AM CDT 10:55 PM CDT
Moon 4:54 PM CDT (5/21) 3:24 AM CDT (5/21)
Length of Visible Light 16h 06m
Length of Day
14h 57m
Waxing Gibbous, 84% of the Moon is Illuminated
May 21
Waxing Gibbous
May 24
Full
May 31
Last Quarter
Jun 8
New
Jun 16
First Quarter

Hourly Weather History & Observations

Time (CDT) Temp. Dew Point Humidity Pressure Visibility Wind Dir Wind Speed Gust Speed Precip Events Conditions
12:12 AM 60.8 °F 57.2 °F 88% 29.51 in 10.0 mi Calm Calm - N/A   Overcast
12:33 AM 60.8 °F 55.4 °F 82% 29.51 in 10.0 mi South 6.9 mph - N/A   Overcast
12:52 AM 60.8 °F 55.4 °F 82% 29.50 in 10.0 mi South 4.6 mph - N/A   Overcast
1:12 AM 60.8 °F 55.4 °F 82% 29.50 in 10.0 mi South 4.6 mph - N/A   Overcast
1:33 AM 60.8 °F 55.4 °F 82% 29.50 in 10.0 mi SSW 4.6 mph - N/A   Overcast
1:52 AM 60.8 °F 55.4 °F 82% 29.50 in 10.0 mi SSW 4.6 mph - N/A   Overcast
2:12 AM 60.8 °F 55.4 °F 82% 29.49 in 10.0 mi SW 4.6 mph - N/A   Overcast
2:33 AM 59.0 °F 55.4 °F 88% 29.49 in 10.0 mi SSW 5.8 mph - N/A   Overcast
2:52 AM 59.0 °F 55.4 °F 88% 29.49 in 10.0 mi SW 9.2 mph - N/A   Overcast
3:12 AM 57.2 °F 55.4 °F 94% 29.50 in 10.0 mi SW 10.4 mph - N/A   Overcast
3:33 AM 57.2 °F 55.4 °F 94% 29.50 in 10.0 mi WSW 10.4 mph - N/A   Overcast
3:52 AM 55.4 °F 55.4 °F 100% 29.50 in 3.0 mi WSW 10.4 mph - N/A   Light Drizzle
4:12 AM 55.4 °F 53.6 °F 94% 29.51 in 10.0 mi WSW 5.8 mph - N/A   Overcast
4:33 AM 57.2 °F 53.6 °F 88% 29.51 in 10.0 mi SW 4.6 mph - N/A   Overcast
4:52 AM 57.2 °F 53.6 °F 88% 29.51 in 10.0 mi SW 10.4 mph - N/A   Overcast
5:12 AM 55.4 °F 53.6 °F 94% 29.51 in 10.0 mi SW 11.5 mph - N/A   Overcast
5:33 AM 55.4 °F 51.8 °F 88% 29.52 in 10.0 mi SSW 9.2 mph - N/A   Overcast
5:52 AM 55.4 °F 51.8 °F 88% 29.52 in 10.0 mi SSW 10.4 mph - N/A   Overcast
6:12 AM 55.4 °F 51.8 °F 88% 29.52 in 10.0 mi SW 12.7 mph 17.3 mph N/A   Overcast
6:33 AM 53.6 °F 51.8 °F 94% 29.53 in 10.0 mi SW 15.0 mph - N/A   Overcast
6:52 AM 53.6 °F 51.8 °F 94% 29.53 in 10.0 mi SW 9.2 mph - N/A   Overcast
7:12 AM 53.6 °F 51.8 °F 94% 29.54 in 10.0 mi SSW 11.5 mph - N/A   Overcast
7:33 AM 53.6 °F 51.8 °F 94% 29.54 in 1.2 mi SSW 10.4 mph - N/A   Overcast
7:52 AM 55.4 °F 53.6 °F 94% 29.54 in 3.0 mi SW 8.1 mph - N/A   Overcast
8:12 AM 55.4 °F 53.6 °F 94% 29.55 in 10.0 mi SSW 9.2 mph - N/A   Overcast
8:33 AM 57.2 °F 53.6 °F 88% 29.55 in 10.0 mi SSW 9.2 mph - N/A   Overcast
8:52 AM 57.2 °F 53.6 °F 88% 29.56 in 4.0 mi SW 11.5 mph - N/A   Overcast
9:12 AM 57.2 °F 51.8 °F 82% 29.56 in 10.0 mi SW 9.2 mph - N/A   Mostly Cloudy
9:33 AM 57.2 °F 51.8 °F 82% 29.57 in 10.0 mi SSW 9.2 mph - N/A   Mostly Cloudy
9:52 AM 57.2 °F 51.8 °F 82% 29.57 in 10.0 mi SSW 10.4 mph - N/A   Mostly Cloudy
10:12 AM 60.8 °F 51.8 °F 72% 29.57 in 10.0 mi SSW 11.5 mph - N/A   Mostly Cloudy
10:33 AM 59.0 °F 51.8 °F 77% 29.56 in 10.0 mi SSW 8.1 mph - N/A   Overcast
10:52 AM 59.0 °F 50.0 °F 72% 29.57 in 10.0 mi SSW 10.4 mph - N/A   Overcast
11:12 AM 57.2 °F 50.0 °F 77% 29.57 in 10.0 mi SW 6.9 mph - N/A   Overcast
11:33 AM 57.2 °F 48.2 °F 72% 29.58 in 10.0 mi SSW 11.5 mph - N/A   Overcast
11:52 AM 59.0 °F 50.0 °F 72% 29.58 in 10.0 mi South 5.8 mph 9.2 mph N/A   Overcast
12:12 PM 57.2 °F 50.0 °F 77% 29.58 in 10.0 mi SSW 9.2 mph - N/A   Overcast
12:33 PM 59.0 °F 50.0 °F 72% 29.59 in 10.0 mi SSW 6.9 mph - N/A   Overcast
12:52 PM 60.8 °F 50.0 °F 68% 29.59 in 10.0 mi SSW 11.5 mph - N/A   Overcast
1:12 PM 59.0 °F 50.0 °F 72% 29.60 in 10.0 mi SSW 9.2 mph - N/A   Overcast
1:33 PM 59.0 °F 50.0 °F 72% 29.60 in 10.0 mi SSW 9.2 mph - N/A   Overcast
1:52 PM 59.0 °F 48.2 °F 67% 29.60 in 10.0 mi SSW 9.2 mph - N/A   Overcast
2:12 PM 60.8 °F 50.0 °F 68% 29.60 in 10.0 mi SW 9.2 mph - N/A   Overcast
2:33 PM 59.0 °F 48.2 °F 67% 29.61 in 10.0 mi SSW 6.9 mph - N/A   Overcast
2:52 PM 59.0 °F 48.2 °F 67% 29.62 in 10.0 mi South 9.2 mph - N/A   Overcast
3:12 PM 57.2 °F 48.2 °F 72% 29.63 in 10.0 mi SSW 10.4 mph - N/A   Overcast
3:33 PM 57.2 °F 50.0 °F 77% 29.63 in 10.0 mi SSW 9.2 mph - N/A   Overcast
3:52 PM 57.2 °F 50.0 °F 77% 29.63 in 10.0 mi SW 5.8 mph - N/A   Overcast
4:12 PM 57.2 °F 50.0 °F 77% 29.64 in 10.0 mi South 9.2 mph - N/A   Overcast
4:33 PM 57.2 °F 50.0 °F 77% 29.63 in 10.0 mi South 10.4 mph - N/A   Overcast
4:52 PM 59.0 °F 51.8 °F 77% 29.63 in 10.0 mi SSW 9.2 mph - N/A   Overcast
5:12 PM 57.2 °F 51.8 °F 82% 29.63 in 10.0 mi SW 9.2 mph - N/A   Overcast
5:33 PM 57.2 °F 50.0 °F 77% 29.63 in 10.0 mi SW 5.8 mph - N/A   Overcast
5:52 PM 59.0 °F 50.0 °F 72% 29.63 in 10.0 mi SW 6.9 mph - N/A   Overcast
6:12 PM 59.0 °F 50.0 °F 72% 29.62 in 10.0 mi SSW 3.5 mph - N/A   Overcast
6:32 PM 59.0 °F 51.8 °F 77% 29.62 in 10.0 mi Calm Calm - N/A   Overcast
6:52 PM 59.0 °F 50.0 °F 72% 29.62 in 10.0 mi Calm Calm - N/A   Overcast
7:13 PM 57.2 °F 48.2 °F 72% 29.64 in 10.0 mi Calm Calm - N/A   Overcast
7:32 PM 57.2 °F 50.0 °F 77% 29.65 in 10.0 mi Calm Calm - N/A   Overcast
7:52 PM 57.2 °F 50.0 °F 77% 29.64 in 10.0 mi Calm Calm - N/A   Overcast
8:13 PM 57.2 °F 50.0 °F 77% 29.65 in 10.0 mi Calm Calm - N/A   Overcast
8:32 PM 57.2 °F 51.8 °F 82% 29.66 in 10.0 mi Calm Calm - N/A   Overcast
8:52 PM 57.2 °F 50.0 °F 77% 29.66 in 10.0 mi Calm Calm - N/A   Overcast
9:13 PM 57.2 °F 51.8 °F 82% 29.66 in 10.0 mi NNE 3.5 mph - N/A   Overcast
9:32 PM 57.2 °F 51.8 °F 82% 29.67 in 10.0 mi Calm Calm - N/A   Overcast
9:52 PM 57.2 °F 51.8 °F 82% 29.67 in 10.0 mi ENE 4.6 mph - N/A   Overcast
10:13 PM 55.4 °F 51.8 °F 88% 29.66 in 7.0 mi Calm Calm - N/A   Drizzle
10:32 PM 55.4 °F 51.8 °F 88% 29.67 in 10.0 mi Calm Calm - N/A   Overcast
10:52 PM 55.4 °F 51.8 °F 88% 29.68 in 10.0 mi NE 3.5 mph - N/A   Overcast
11:12 PM 55.4 °F 51.8 °F 88% 29.68 in 10.0 mi Calm Calm - N/A   Overcast
11:32 PM 55.4 °F 51.8 °F 88% 29.68 in 10.0 mi Calm Calm - N/A   Overcast
11:53 PM 55.4 °F 51.8 °F 88% 29.67 in 10.0 mi NNE 3.5 mph - N/A   Overcast